| time (UTC) | temp F | wind direction | speed MPH | gust MPH | rain 1hr in | rain 24hr in | rain mn in | humidity % | barometer mb |
| 20260901203009 | 0 | 0.0 | 0.0 | 0.00 | 0.00 | 0.00 | 1014.6 | ||
| 20260901201503 | 0 | 0.0 | 0.0 | 0.00 | 0.00 | 0.00 | 1014.7 | ||
| 20260901200058 | 0 | 0.0 | 0.0 | 0.00 | 0.00 | 0.00 | 1014.8 | ||
| 20260901194554 | 0 | 0.0 | 0.0 | 0.00 | 0.00 | 0.00 | 1014.9 | ||
| 20260901193059 | 0 | 0.0 | 0.0 | 0.00 | 0.00 | 0.00 | 1014.9 | ||
| 20260901191545 | 0 | 0.0 | 0.0 | 0.00 | 0.00 | 0.00 | 1015.0 | ||
| 20260901190041 | 0 | 0.0 | 0.0 | 0.00 | 0.00 | 0.00 | 1015.2 | ||
| 20260901184541 | 0 | 0.0 | 0.0 | 0.00 | 0.00 | 0.00 | 1015.3 | ||
| 20260901183032 | 94 | 360 | 3.0 | 10.0 | 0.00 | 0.00 | 0.00 | 100 | 1015.4 |
| 20260901181528 | 94 | 234 | 3.0 | 11.0 | 0.00 | 0.00 | 0.00 | 100 | 1015.4 |
| 20260901180024 | 94 | 360 | 2.0 | 10.0 | 0.00 | 0.00 | 0.00 | 100 | 1015.6 |
| 20260901174519 | 94 | 228 | 3.0 | 12.0 | 0.00 | 0.00 | 0.00 | 100 | 1015.6 |
| 20260901173014 | 93 | 219 | 2.0 | 9.0 | 0.00 | 0.00 | 0.00 | 100 | 1015.6 |
| 20260901171517 | 93 | 237 | 1.0 | 8.0 | 0.00 | 0.00 | 0.00 | 100 | 1015.7 |
| 20260901170006 | 92 | 246 | 1.0 | 8.0 | 0.00 | 0.00 | 0.00 | 100 | 1015.8 |
| 20260901164502 | 92 | 360 | 1.0 | 8.0 | 0.00 | 0.00 | 0.00 | 100 | 1015.9 |
| 20260901163057 | 91 | 360 | 3.0 | 10.0 | 0.00 | 0.00 | 0.00 | 100 | 1015.9 |
| 20260901161552 | 90 | 247 | 3.0 | 8.0 | 0.00 | 0.00 | 0.00 | 100 | 1016.0 |
| 20260901160048 | 90 | 240 | 2.0 | 9.0 | 0.00 | 0.00 | 0.00 | 100 | 1015.9 |
| 20260901154544 | 88 | 360 | 2.0 | 9.0 | 0.00 | 0.00 | 0.00 | 100 | 1016.0 |
| 20260901153039 | 88 | 360 | 1.0 | 8.0 | 0.00 | 0.00 | 0.00 | 100 | 1016.0 |
| 20260901151536 | 87 | 360 | 1.0 | 6.0 | 0.00 | 0.00 | 0.00 | 100 | 1016.1 |
| 20260901150031 | 86 | 235 | 0.0 | 4.0 | 0.00 | 0.00 | 0.00 | 100 | 1016.0 |
| 20260901144527 | 84 | 360 | 1.0 | 6.0 | 0.00 | 0.00 | 0.00 | 100 | 1016.1 |
| 20260901143022 | 83 | 360 | 3.0 | 8.0 | 0.00 | 0.00 | 0.00 | 100 | 1016.0 |
| 20260901141520 | 83 | 360 | 2.0 | 7.0 | 0.00 | 0.00 | 0.00 | 100 | 1015.7 |
| 20260901140015 | 82 | 245 | 1.0 | 7.0 | 0.00 | 0.00 | 0.00 | 100 | 1015.8 |
| 20260901134509 | 81 | 360 | 0.0 | 8.0 | 0.00 | 0.00 | 0.00 | 100 | 1015.9 |
| 20260901133004 | 80 | 214 | 1.0 | 7.0 | 0.00 | 0.00 | 0.00 | 100 | 1015.9 |
| 20260901131605 | 79 | 242 | 1.0 | 6.0 | 0.00 | 0.00 | 0.00 | 100 | 1016.0 |
| 20260901130057 | 78 | 250 | 0.0 | 2.0 | 0.00 | 0.00 | 0.00 | 100 | 1016.1 |
| 20260901124552 | 77 | 360 | 2.0 | 6.0 | 0.00 | 0.00 | 0.00 | 100 | 1016.2 |
| 20260901123049 | 77 | 251 | 1.0 | 5.0 | 0.00 | 0.00 | 0.00 | 100 | 1016.1 |
| 20260901121547 | 76 | 235 | 0.0 | 4.0 | 0.00 | 0.00 | 0.00 | 100 | 1016.0 |
| 20260901120044 | 76 | 232 | 0.0 | 0.0 | 0.00 | 0.00 | 0.00 | 100 | 1015.7 |
| 20260901114537 | 76 | 226 | 0.0 | 0.0 | 0.00 | 0.00 | 0.00 | 100 | 1015.3 |
| 20260901113030 | 76 | 229 | 0.0 | 0.0 | 0.00 | 0.00 | 0.00 | 100 | 1015.4 |
| 20260901111526 | 76 | 229 | 0.0 | 0.0 | 0.00 | 0.00 | 0.00 | 100 | 1015.2 |
| 20260901110026 | 76 | 227 | 0.0 | 0.0 | 0.00 | 0.00 | 0.00 | 100 | 1015.0 |
| 20260901104519 | 76 | 230 | 0.0 | 0.0 | 0.00 | 0.00 | 0.00 | 100 | 1014.9 |
| 20260901103012 | 76 | 234 | 0.0 | 3.0 | 0.00 | 0.00 | 0.00 | 100 | 1014.9 |
| 20260901101509 | 76 | 246 | 0.0 | 2.0 | 0.00 | 0.00 | 0.00 | 100 | 1014.8 |
| 20260901100006 | 76 | 247 | 0.0 | 0.0 | 0.00 | 0.00 | 0.00 | 100 | 1014.7 |
| 20260901094602 | 77 | 248 | 0.0 | 0.0 | 0.00 | 0.00 | 0.00 | 100 | 1014.8 |
| 20260901093055 | 77 | 248 | 0.0 | 0.0 | 0.00 | 0.00 | 0.00 | 100 | 1014.9 |
| 20260901091551 | 77 | 248 | 0.0 | 4.0 | 0.00 | 0.00 | 0.00 | 100 | 1014.6 |
| 20260901090050 | 77 | 244 | 0.0 | 3.0 | 0.00 | 0.00 | 0.00 | 100 | 1014.6 |
| 20260901084546 | 77 | 244 | 1.0 | 5.0 | 0.00 | 0.00 | 0.00 | 100 | 1014.7 |
| 20260901083038 | 77 | 244 | 0.0 | 3.0 | 0.00 | 0.00 | 0.00 | 100 | 1014.5 |
| 20260901081540 | 78 | 245 | 0.0 | 3.0 | 0.00 | 0.00 | 0.00 | 100 | 1014.7 |
| 20260901080028 | 78 | 243 | 2.0 | 7.0 | 0.00 | 0.00 | 0.00 | 100 | 1014.6 |
| 20260901074525 | 79 | 251 | 2.0 | 7.0 | 0.00 | 0.00 | 0.00 | 100 | 1014.6 |
| 20260901073023 | 79 | 247 | 1.0 | 6.0 | 0.00 | 0.00 | 0.00 | 100 | 1014.6 |
| 20260901071516 | 79 | 233 | 0.0 | 7.0 | 0.00 | 0.00 | 0.00 | 100 | 1014.5 |
| 20260901070021 | 79 | 234 | 1.0 | 6.0 | 0.00 | 0.00 | 0.00 | 100 | 1014.4 |
| 20260901064508 | 79 | 243 | 1.0 | 6.0 | 0.00 | 0.00 | 0.00 | 100 | 1014.4 |
| 20260901063006 | 80 | 230 | 0.0 | 4.0 | 0.00 | 0.00 | 0.00 | 100 | 1014.4 |
| 20260901061600 | 80 | 227 | 0.0 | 4.0 | 0.00 | 0.00 | 0.00 | 100 | 1014.3 |
| 20260901060054 | 80 | 222 | 1.0 | 5.0 | 0.00 | 0.00 | 0.00 | 100 | 1014.4 |
| 20260901054550 | 80 | 223 | 0.0 | 3.0 | 0.00 | 0.00 | 0.00 | 100 | 1014.3 |
| 20260901053046 | 80 | 223 | 0.0 | 0.0 | 0.00 | 0.00 | 0.00 | 100 | 1014.4 |
| 20260901051541 | 80 | 223 | 0.0 | 0.0 | 0.00 | 0.00 | 0.00 | 100 | 1014.5 |
| 20260901050037 | 81 | 223 | 0.0 | 3.0 | 0.00 | 0.00 | 0.00 | 100 | 1014.5 |
| 20260901044533 | 81 | 221 | 1.0 | 6.0 | 0.00 | 0.00 | 0.00 | 100 | 1014.5 |
| 20260901043028 | 81 | 234 | 1.0 | 5.0 | 0.00 | 0.00 | 0.00 | 100 | 1014.6 |
| 20260901041523 | 81 | 223 | 0.0 | 4.0 | 0.00 | 0.00 | 0.00 | 100 | 1014.8 |
| 20260901040020 | 82 | 223 | 0.0 | 3.0 | 0.00 | 0.00 | 0.00 | 100 | 1014.8 |
| 20260901034517 | 82 | 221 | 0.0 | 6.0 | 0.00 | 0.00 | 0.00 | 100 | 1014.7 |
| 20260901033011 | 82 | 215 | 0.0 | 5.0 | 0.00 | 0.00 | 0.00 | 100 | 1014.7 |
| 20260901031506 | 82 | 209 | 0.0 | 1.0 | 0.00 | 0.00 | 0.00 | 100 | 1014.8 |
| 20260901030002 | 82 | 207 | 0.0 | 3.0 | 0.00 | 0.00 | 0.00 | 100 | 1014.8 |
| 20260901024558 | 83 | 207 | 0.0 | 3.0 | 0.00 | 0.00 | 0.00 | 100 | 1014.9 |
| 20260901023052 | 83 | 206 | 0.0 | 0.0 | 0.00 | 0.00 | 0.00 | 100 | 1015.0 |
| 20260901021552 | 83 | 206 | 0.0 | 0.0 | 0.00 | 0.00 | 0.00 | 100 | 1015.2 |
| 20260901020050 | 84 | 216 | 0.0 | 4.0 | 0.00 | 0.00 | 0.00 | 100 | 1014.9 |
| 20260901014541 | 83 | 215 | 0.0 | 7.0 | 0.00 | 0.00 | 0.00 | 100 | 1014.6 |
| 20260901013036 | 83 | 198 | 0.0 | 5.0 | 0.00 | 0.00 | 0.00 | 100 | 1014.6 |
| 20260901011531 | 83 | 194 | 0.0 | 2.0 | 0.00 | 0.00 | 0.00 | 100 | 1014.5 |
| 20260901010027 | 84 | 194 | 0.0 | 0.0 | 0.00 | 0.00 | 0.00 | 100 | 1014.6 |
| 20260901004522 | 84 | 201 | 0.0 | 0.0 | 0.00 | 0.00 | 0.00 | 100 | 1014.6 |
| 20260901003022 | 85 | 202 | 0.0 | 1.0 | 0.00 | 0.00 | 0.00 | 100 | 1014.6 |
| 20260901001515 | 86 | 217 | 0.0 | 5.0 | 0.00 | 0.00 | 0.00 | 100 | 1014.6 |
| 20260901000009 | 86 | 227 | 0.0 | 7.0 | 0.00 | 0.00 | 0.00 | 100 | 1014.3 |
| 20260831234505 | 86 | 207 | 1.0 | 6.0 | 0.00 | 0.00 | 0.00 | 100 | 1013.9 |
| 20260831233102 | 87 | 164 | 0.0 | 4.0 | 0.00 | 0.00 | 0.00 | 100 | 1013.0 |
| 20260831231556 | 87 | 360 | 0.0 | 6.0 | 0.00 | 0.00 | 0.00 | 100 | 1014.7 |
| 20260831230052 | 88 | 254 | 0.0 | 0.0 | 0.00 | 0.00 | 0.00 | 100 | 1014.7 |
| 20260831224547 | 89 | 239 | 0.0 | 8.0 | 0.00 | 0.00 | 0.00 | 100 | 1014.1 |
| 20260831223043 | 88 | 237 | 0.0 | 0.0 | 0.00 | 0.00 | 0.00 | 100 | 1014.1 |
| 20260831221538 | 88 | 360 | 0.0 | 8.0 | 0.00 | 0.00 | 0.00 | 100 | 1014.2 |
| 20260831220034 | 89 | 360 | 1.0 | 8.0 | 0.00 | 0.00 | 0.00 | 100 | 1014.1 |
| 20260831214530 | 89 | 227 | 0.0 | 6.0 | 0.00 | 0.00 | 0.00 | 100 | 1013.8 |
| 20260831213025 | 89 | 217 | 1.0 | 6.0 | 0.00 | 0.00 | 0.00 | 100 | 1013.7 |
| 20260831211530 | 90 | 228 | 0.0 | 3.0 | 0.00 | 0.00 | 0.00 | 100 | 1013.7 |
| 20260831210017 | 91 | 218 | 1.0 | 12.0 | 0.00 | 0.00 | 0.00 | 12 | 1013.8 |
| 20260831204513 | 92 | 242 | 1.0 | 9.0 | 0.00 | 0.00 | 0.00 | 16 | 1014.1 |